EW2973 Weather Reports


Display with metric or nautical units.
time (UTC)temp
F
wind
direction
speed
MPH
gust
MPH
rain 1hr
in
rain 24hr
in
rain mn
in
humidity
%
barometer
mb
20260901131535 77 249 2.0 5.0 0.00 0.00 0.00 83 1019.5
20260901130020 76 217 1.0 4.0 0.00 0.00 0.00 84 1019.8
20260901124529 75 236 2.0 4.0 0.00 0.00 0.00 86 1020.0
20260901123034 74 217 1.0 5.0 0.00 0.00 0.00 88 1020.0
20260901121530 74 161 1.0 2.0 0.00 0.00 0.00 89 1020.0
20260901120031 74 149 0.0 1.0 0.00 0.00 0.00 89 1019.8
20260901114531 74 182 0.0 0.0 0.00 0.00 0.00 90 1019.5
20260901113030 73 193 0.0 0.0 0.00 0.00 0.00 90 1019.5
20260901111524 73 218 0.0 2.0 0.00 0.00 0.00 89 1019.4
20260901110018 73 185 0.0 3.0 0.00 0.00 0.00 89 1019.2
20260901104516 74 202 0.0 2.0 0.00 0.00 0.00 89 1019.2
20260901103013 74 148 0.0 2.0 0.00 0.00 0.00 89 1019.1
20260901101552 74 173 0.0 2.0 0.00 0.00 0.00 89 1019.0
20260901100028 74 200 0.0 0.0 0.00 0.00 0.00 89 1018.9
20260901094538 74 205 0.0 0.0 0.00 0.00 0.00 89 1018.8
20260901093023 74 188 0.0 0.0 0.00 0.00 0.00 89 1018.7
20260901091534 74 200 0.0 0.0 0.00 0.00 0.00 90 1018.7
20260901090016 74 188 0.0 0.0 0.00 0.00 0.00 90 1018.7
20260901084538 74 188 0.0 0.0 0.00 0.00 0.00 90 1018.7
20260901083041 74 188 0.0 0.0 0.00 0.00 0.00 89 1018.7
20260901081530 74 178 0.0 0.0 0.00 0.00 0.00 89 1018.6
20260901080112 74 190 0.0 0.0 0.00 0.00 0.00 89 1018.6
20260901074525 74 171 0.0 0.0 0.00 0.00 0.00 88 1018.6
20260901073024 74 195 0.0 0.0 0.00 0.00 0.00 87 1018.5
20260901071514 75 195 0.0 0.0 0.00 0.00 0.00 87 1018.6
20260901070036 75 205 0.0 0.0 0.00 0.00 0.00 87 1018.6
20260901064530 75 213 0.0 0.0 0.00 0.00 0.00 87 1018.6
20260901063040 75 184 0.0 2.0 0.00 0.00 0.00 87 1018.4
20260901061527 75 166 0.0 0.0 0.00 0.00 0.00 87 1018.5
20260901060027 75 185 0.0 0.0 0.00 0.00 0.00 87 1018.7
20260901054523 76 163 0.0 0.0 0.00 0.00 0.00 85 1018.8
20260901053023 76 163 0.0 0.0 0.00 0.00 0.00 83 1018.8
20260901051538 77 189 0.0 0.0 0.00 0.00 0.00 82 1018.7
20260901050033 77 185 0.0 0.0 0.00 0.00 0.00 80 1018.7
20260901044530 78 199 0.0 0.0 0.00 0.00 0.00 79 1018.7
20260901043033 78 188 0.0 0.0 0.00 0.00 0.00 79 1018.7
20260901041534 79 232 0.0 0.0 0.00 0.00 0.00 77 1018.5
20260901040036 79 200 0.0 2.0 0.00 0.00 0.00 77 1018.1
20260901034523 79 214 1.0 6.0 0.00 0.00 0.00 77 1017.8
20260901033036 78 176 1.0 7.0 0.00 0.00 0.00 78 1017.9
20260901031535 77 253 2.0 7.0 0.00 0.00 0.00 81 1017.5
20260901030034 75 214 1.0 5.0 0.00 0.00 0.00 84 1018.1
20260901024536 74 178 0.0 2.0 0.00 0.00 0.00 86 1018.8
20260901023030 74 250 0.0 0.0 0.00 0.00 0.00 87 1019.3
20260901021530 74 250 0.0 0.0 0.00 0.00 0.00 87 1019.3
20260901020038 74 250 0.0 0.0 0.00 0.00 0.00 87 1019.6
20260901014533 75 250 0.0 0.0 0.00 0.00 0.00 86 1019.8
20260901013032 75 250 0.0 0.0 0.00 0.00 0.00 84 1019.7
20260901011530 76 250 0.0 0.0 0.00 0.00 0.00 85 1019.5
20260901010037 76 250 0.0 0.0 0.00 0.00 0.00 84 1019.2
20260901004534 77 250 0.0 0.0 0.00 0.00 0.00 83 1019.2
20260901003031 78 250 0.0 0.0 0.00 0.00 0.00 81 1019.4
20260901001538 79 250 0.0 0.0 0.00 0.00 0.00 77 1019.5
20260901000035 80 250 0.0 0.0 0.00 0.00 0.00 75 1019.2
20260831234534 81 250 0.0 0.0 0.00 0.00 0.00 73 1019.1
20260831233030 82 250 0.0 0.0 0.00 0.00 0.00 71 1019.1
20260831231549 83 250 0.0 0.0 0.00 0.00 0.00 70 1019.1
20260831230034 83 250 0.0 0.0 0.00 0.00 0.00 70 1018.9
20260831224546 84 240 0.0 2.0 0.00 0.00 0.00 70 1018.7
20260831223035 84 240 0.0 2.0 0.00 0.00 0.00 69 1018.5
20260831221542 85 222 0.0 2.0 0.00 0.00 0.00 66 1018.4
20260831220039 85 179 2.0 5.0 0.00 0.00 0.00 65 1018.5
20260831214543 85 240 1.0 7.0 0.00 0.00 0.00 64 1018.5
20260831213031 86 229 2.0 4.0 0.00 0.00 0.00 65 1018.7
20260831211534 86 242 1.0 5.0 0.00 0.00 0.00 65 1018.6
20260831210032 85 202 0.0 3.0 0.00 0.00 0.00 66 1018.7
20260831204527 85 145 0.0 0.0 0.00 0.00 0.00 63 1019.1
20260831203032 85 218 0.0 6.0 0.00 0.00 0.00 60 1019.1
20260831201535 86 213 0.0 4.0 0.00 0.00 0.00 61 1019.2
20260831200032 86 229 3.0 8.0 0.00 0.00 0.00 59 1019.4
20260831194529 87 270 2.0 8.0 0.00 0.00 0.00 62 1019.6
20260831193043 87 267 1.0 7.0 0.00 0.00 0.00 61 1019.7
20260831191542 87 223 3.0 8.0 0.00 0.00 0.00 59 1019.7
20260831190029 87 261 2.0 7.0 0.00 0.00 0.00 62 1019.9
20260831184524 87 264 0.0 2.0 0.00 0.00 0.00 62 1020.1
20260831183036 88 16 0.0 8.0 0.00 0.00 0.00 59 1020.2
20260831181530 87 234 5.0 9.0 0.00 0.00 0.00 60 1020.4
20260831180036 87 308 0.0 2.0 0.00 0.00 0.00 61 1020.6
20260831174531 87 42 0.0 5.0 0.00 0.00 0.00 61 1020.7
20260831173038 87 344 0.0 5.0 0.00 0.00 0.00 62 1020.8
20260831171524 87 225 1.0 6.0 0.00 0.00 0.00 59 1020.7
20260831170029 87 261 1.0 10.0 0.00 0.00 0.00 58 1020.8
20260831164532 87 245 3.0 8.0 0.00 0.00 0.00 58 1020.9
20260831163035 87 253 2.0 5.0 0.00 0.00 0.00 62 1021.0
20260831161534 85 28 0.0 7.0 0.00 0.00 0.00 65 1020.9
20260831160039 84 240 4.0 7.0 0.00 0.00 0.00 67 1021.0
20260831154616 83 267 0.0 3.0 0.00 0.00 0.00 75 1020.9
20260831153028 82 226 0.0 2.0 0.00 0.00 0.00 76 1020.8
20260831151532 82 226 0.0 2.0 0.00 0.00 0.00 75 1020.8
20260831150033 81 237 0.0 4.0 0.00 0.00 0.00 75 1020.8
20260831144535 80 266 1.0 4.0 0.00 0.00 0.00 78 1020.6
20260831143034 78 178 1.0 6.0 0.00 0.00 0.00 80 1020.5
20260831141530 77 108 0.0 1.0 0.00 0.00 0.00 84 1020.3
20260831140029 76 157 1.0 5.0 0.00 0.00 0.00 85 1020.5
20260831134531 75 192 0.0 4.0 0.00 0.00 0.00 87 1020.7
20260831133027 74 159 0.0 4.0 0.00 0.00 0.00 87 1020.6